Location: Unspecified
(0.0000°N, 0.0000°E)
Time: 06:27:22
(UTC+00:00)

Orbcomm F1 (FM01) - Pass Details

Date: 24 May 2026
Orbit: 578 x 582 km, 70.0° (Epoch: 8 June)

Event Time Altitude Azimuth Distance (km) Brightness Sun altitude
Exits shadow 04:45:31 15° 303° (WNW) 1,572 8.8 -16.6°
Drops below altitude 10° 04:47:15 10° 326° (NW) 1,891 9.4 -16.2°
Sets 04:50:10 0° 348° (NNW) 2,786 10.5 -15.6°
